Location: Navajo
(48.7922°N, 105.0603°W)
Time: 07:32:29
(UTC+00:00)

CAS-4B - Visible Passes

Search period start: 01 July 2022 00:00
Search period end: 11 July 2022 00:00
Orbit: 523 x 537 km, 43.0° (Epoch: 30 June)

Date Brightness Start Highest point End Pass type
(mag) Time Alt. Az. Time Alt. Az. Time Alt. Az.
01 Jul ? 09:06:27 17° S 09:07:32 19° SSE 09:10:24 10° ESE visible
02 Jul ? 08:54:15 20° S 08:54:58 21° SSE 08:58:04 10° ESE visible
03 Jul ? 08:42:03 23° S 08:42:25 23° SSE 08:45:40 10° ESE visible
03 Jul ? 10:18:08 10° WSW 10:21:52 36° S 10:25:36 10° ESE visible
04 Jul ? 08:29:50 26° SSE 08:29:52 26° SSE 08:33:15 10° ESE visible
04 Jul ? 10:05:37 10° WSW 10:09:21 36° S 10:13:05 10° ESE visible
05 Jul ? 08:17:37 28° SSE 08:17:37 28° SSE 08:20:48 10° ESE visible
05 Jul ? 09:53:06 10° WSW 09:56:49 36° S 10:00:33 10° ESE visible
06 Jul ? 08:05:27 28° SSE 08:05:27 28° SSE 08:08:20 10° ESE visible
06 Jul ? 09:40:38 10° WSW 09:44:17 35° S 09:48:00 10° ESE visible
07 Jul ? 07:53:21 27° SE 07:53:21 27° SE 07:55:51 10° ESE visible
07 Jul ? 09:28:33 13° WSW 09:31:46 34° S 09:35:26 10° ESE visible
08 Jul ? 07:41:24 23° SE 07:41:24 23° SE 07:43:20 10° ESE visible
08 Jul ? 09:16:36 16° WSW 09:19:12 32° S 09:22:50 10° SE visible
09 Jul ? 07:29:44 17° ESE 07:29:44 17° ESE 07:30:49 10° ESE visible
09 Jul ? 09:04:58 22° SW 09:06:39 31° SSW 09:10:13 10° SE visible
10 Jul ? 08:53:56 28° SSW 08:54:05 29° SSW 08:57:35 10° SE visible
